Regional Weather Roundup
Issued by NWS Wakefield, VA

Home | Current Version | Previous Version | Text Only | Print | Product List | Glossary Off
Versions: 1 2 3 4 5 6 7 8 9 10 11 12 13 14 15 16 17 18 19 20 21 22 23 24 25 26 27

000
ASUS41 KAKQ 221510
RWRAKQ

REGIONAL WEATHER ROUNDUP
NATIONAL WEATHER SERVICE WAKEFIELD VA
1100 AM EDT TUE APR 22 2014

Note: "fair" indicates few or no clouds below 12,000 feet with no
significant weather and/or obstructions to visibility. * = Denotes
station may not report precipitation (e.g., rain,snow,etc.),
thunder or fog.

VAZ042-051-052>054-056-221600-
NORTHERN VIRGINIA

CITY           SKY/WX    TMP DP  RH WIND       PRES   REMARKS
WASH NATIONAL  CLOUDY    63  49  60 S8        29.70F
DULLES         PTSUNNY   64  43  46 S6        29.69F
FORT BELVOIR   MOSUNNY   65  47  50 SE2       29.70
QUANTICO       PTSUNNY   63  51  65 S6        29.71F
FREDERICKSBRG* MOSUNNY   72  43  35 S6        29.69F
STAFFORD*      MOSUNNY   70  46  42 CALM      29.74F
WARRENTON      MOSUNNY   70  50  49 CALM      29.69F
CULPEPER*      CLOUDY    72  39  30 CALM      29.70F
MANASSAS*      PTSUNNY   66  46  48 CALM      29.69F
LEESBURG*      PTSUNNY   68  46  45 SW6       29.69F
WINCHESTER     LGT RAIN  66  46  48 SW6       29.70S
$$

VAZ048-049-060>072-079>083-221600-
CENTRAL AND SOUTH CENTRAL VIRGINIA...AND NORTH CENTRAL NORTH CAROLINA

CITY           SKY/WX    TMP DP  RH WIND       PRES   REMARKS
RICHMOND       PTSUNNY   70  46  42 VRB3      29.72F
CHESTERFIELD*  NOT AVBL
HANOVER        SUNNY     70  44  39 S5        29.73F
TAPPAHANNOCK*  SUNNY     70  41  34 S8        29.72F
CHARLOTTSVILLE CLOUDY    66  44  45 S6        29.71F
ORANGE*        CLOUDY    68  43  40 SE6       29.72R
LOUISA*        PTSUNNY   72  43  35 SW3       29.70F
FARMVILLE*     PTSUNNY   73  45  35 SW5       29.71F
SOUTH HILL*    SUNNY     70  48  46 SW3       29.80F
ROANOKE RAPIDS SUNNY     68  50  52 S8        29.76F
RALEIGH        PTSUNNY   71  49  45 SW8       29.79F
$$

VAZ088>098-221600-
SOUTHEAST VIRGINIA

CITY           SKY/WX    TMP DP  RH WIND       PRES   REMARKS
NORFOLK        SUNNY     70  48  45 S12       29.75F
VIRGINIA BEACH MOSUNNY   71  46  40 SW10      29.75F
NORFOLK NAVAL  PTSUNNY   70  48  45 SW10G17   29.76F
WEST POINT*    SUNNY     70  44  38 SW8       29.74F
NEWPORT NEWS   SUNNY     71  48  43 SW13      29.75F
LANGLEY AFB    NOT AVBL
FORT EUSTIS    SUNNY     68  54  62 S8        29.73
WILLIAMSBURG*  SUNNY     72  52  49 S5        29.75F
FRANKLIN*      MOSUNNY   72  48  43 SW7       29.76F
WAKEFIELD      SUNNY     69  47  45 S10       29.75F
$$

VAZ020-022-025-037-045-221600-
WESTERN AND SOUTHWEST VIRGINIA

CITY           SKY/WX    TMP DP  RH WIND       PRES   REMARKS
STAUNTON*      CLOUDY    66  45  47 S5        29.75F
HOT SPRINGS VA CLOUDY    59  45  58 W15G23    29.86F
LYNCHBURG      MOSUNNY   78  47  33 VRB6      29.76F
DANVILLE       MOSUNNY   73  49  42 SW7       29.77F
MARTINSVILLE   MOSUNNY   78  48  34 W6        29.80F
ROANOKE        CLOUDY    70  46  42 SW9       29.79F
BLACKSBURG     CLOUDY    72  52  49 W8G17     29.83F
DUBLIN*        PTSUNNY   68  49  51 SW8       29.83F
MARION*        PTSUNNY   64  47  54 SW15G21   29.87F
HILLSVILLE*    PTSUNNY   64  43  45 W14       29.88S
RICHLANDS*     CLOUDY    65  49  55 W8        29.86F
WISE*          LGT RAIN  59  52  77 W5        29.90R
ABINGDON*      PTSUNNY   66  50  55 W9        29.87S
$$

MDZ021>025-VAZ099-100-221600-
SOUTHERN MARYLAND AND THE DELMARVA PENINSULA

CITY           SKY/WX    TMP DP  RH WIND       PRES   REMARKS
PATUXENT RIVER PTSUNNY   67  46  47 S6        29.70F
BAY BRIDGE APT SUNNY     61  48  63 SE12      29.70F
LEONARDTOWN    SUNNY     66  41  39 S8        29.72F
DOVER          MOSUNNY   67  48  51 S12       29.67F
GEORGETOWN     MOSUNNY   68  44  42 SW14      29.72F
EASTON         MOSUNNY   68  48  49 SW9       29.74F
CAMBRIDGE      SUNNY     66  45  45 S9G16     29.71F
SALISBURY      SUNNY     70  45  40 SW13      29.72
OCEAN CITY     MOSUNNY   60  51  72 S8        29.74F
WALLOPS ISLAND MOSUNNY   65  53  65 S13       29.75F
ACCOMACK*      SUNNY     68  39  34 SW8       29.74F
$$

NCZ012>017-030>032-221600-
EASTERN NORTH CAROLINA

CITY           SKY/WX    TMP DP  RH WIND       PRES   REMARKS
ELIZABETH CITY SUNNY     68  52  56 S9        29.78F
AHOSKIE*       SUNNY     71  48  43 S5        29.77F
EDENTON*       SUNNY     67  56  66 SW7       29.79F
CURRITUCK*     SUNNY     69  49  49 SW6       29.79F
KILL DEVIL HLS SUNNY     66  50  55 S3        29.79F
MANTEO         SUNNY     65  50  59 SW7       29.81F
CAPE HATTERAS  SUNNY     59  32  36 SW8       29.83F
GOLDSBORO      PTSUNNY   73  48  41 SW13      29.79F
WASHINGTON     SUNNY     73  56  54 SW12      29.80F
GREENVILLE     MOSUNNY   72  46  40 SW12G20   29.82F
NEW BERN       SUNNY     74  55  51 SW9G16    29.82F
WILMINGTON     SUNNY     75  48  38 SW10      29.84F
$$

VAZ048-221600-
ELSEWHERE

CITY           SKY/WX    TMP DP  RH WIND       PRES   REMARKS
HARRISBURG PA  CLOUDY    64  43  46 E6        29.66F
BALTIMORE      PTSUNNY   65  46  50 W5        29.69F
ANNAPOLIS      SUNNY     57  50  77 SE14      29.70F
ANDREWS AFB    MOSUNNY   67  44  43 S5        29.69F
WILMINGTON DE  MOSUNNY   63  49  60 S8        29.70F
PHILADELPHIA   PTSUNNY   65  44  46 SW13      29.69F
WILDWOOD NJ*   PTSUNNY   64  48  55 S12       29.73F
ATLANTIC CITY  MOSUNNY   66  47  50 S10       29.71F
HENDERSON NC   SUNNY     72  46  38 SW3       29.77S
GREENSBORO     PTSUNNY   72  47  40 W7        29.80S
ROCKY MOUNT    MOSUNNY   72  50  45 SW12      29.78F
FAYETTEVILLE   MOSUNNY   74  44  34 SW12      29.81F
CHARLOTTE      PTSUNNY   74  51  44 CALM      29.83F
$$

VAZ100-221600-
MARINE

STATION/POSITION TIME  TEMP    WIND        PRES    WAVE   SWELL
                       AIR SEA DIR/SP/G            HT/PER HT/PER
                 (UTC) (F)     (DEG/KT/KT) (MB)    (FT/S) (FT/S)
44066 TX TWR #4  1500   48 46  200/  4/  6 1007.2F   5/ 8   5/ 8
CAPE MAY NJ      1500   58 54  190/  8/ 11 1006.2F
LEWES DE         1500   65 48  210/  5/  7 1005.6F
15NM E FENWICK I 1500   49 47              1007.2F   4/ 8
OCEAN-CITY-INLET 1500   51 50  200/  7/  9 1007.0F
WACHAPREAGUE VA  1500   61 56  210/  8/ 11 1007.2F
THOMAS POINT MD  1500   55 54  160/ 13/ 14 1006.0F
GOOSES REEF MD   1500   54     170/ 14/ 16   N/A
COVE POINT MD    1500   54     170/ 15/ 16 1005.9S
SOLOMONS ISLAND  1500      55                N/A
BISHOPS HEAD MD  1500   57 56  180/ 14/ 15 1006.1F
PINEY POINT MD   1500          140/  4/  5   N/A
POTOMAC MD       1500   56     140/  4/  6 1005.7F
CAMBRIDGE MD     1500   64 57  180/  5/  9 1005.6S
LEWISETTA VA     1500   64 56  220/  7/  8 1005.7F
RAPPAHANNOCK LGT 1500          180/ 12/ 14 1007.5F
STINGRAY PT      1500   55     190/ 10/ 12 1007.2F
YORK RVR RNG VA  1500   61     200/  9/ 10 1006.5F
YORKTOWN VA      1500   66 56  230/  9/ 11 1006.8F
JAMESTOWN VA     1500   65     240/  8/ 10   N/A
DOMINION TERM VA 1500   61     230/  5/  6 1007.7S
KIPTOPEKE VA     1500      54  170/  6/  7   N/A
CHES BAY BRIDGE  1500   61 53  190/  5/  6 1007.5F
CAPE HENRY VA    1500   67     210/  8/ 14   N/A
CHESAPEAKE LGHT  1400   51     200/ 14/ 14 1009.1F
WILLOUBY STN VA  1500   62     230/  7/  8 1006.8S
S CRANEY ISL VA  1500          170/  8/ 11 1007.5F
CAPE HENRY BUOY  1500      47                N/A     4/ 9
1ST LANDING BUOY 1500      48                N/A     4/ 9   3/ 9
64NM E OF VA BCH 1500   47 49  200/  6/  6 1008.8F   5/ 9   5/ 9
DUCK PIER NC     1500   61 49  210/  8/ 11 1008.0S
44100 DUCK FRF   1500      49                N/A     5/ 8   2/11
44056 DUCK FRF   1500      52                N/A     4/ 9   2/11
OREGON INLET NC  1500   56 52  180/  6/  8 1009.3F
HATTERAS NC      1500   60 53  210/  7/  9 1010.3S
DIAMOND SHLS NC  1500   67 76  260/ 12/ 16 1009.8F   6/ 8   5/ 8
CAPE LOOKOUT NC  1400   62     180/  8/  9 1010.4F
FRYING PAN SHLS  1500   67 67  250/ 16/ 17 1010.9F   4/10   3/10
$$



USA.gov is the U.S. government's official web portal to all federal, state and local government web resources and services.